Regional Weather Roundup
Issued by NWS

Home | Current Version | Previous Version | Graphics & Text | Print | Product List | Glossary On
Versions: 1 2 3 4 5 6 7 8 9 10 11 12 13 14 15 16 17 18 19 20 21 22 23 24 25 26 27 28 29 30 31 32 33 34 35 36 37 38 39 40 41 42 43 44 45 46 47 48 49 50
000
ASUS43 KIND 281509
RWRIN

WEATHER ROUNDUP FOR INDIANA
NATIONAL WEATHER SERVICE INDIANAPOLIS IN
1100 AM EDT SAT MAY 28 2016

NOTE: "FAIR" INDICATES FEW OR NO CLOUDS BELOW 12,000 FEET WITH NO
SIGNIFICANT WEATHER AND/OR OBSTRUCTIONS TO VISIBILITY.

* - STATION DOES NOT REPORT WEATHER SUCH AS PRECIPITATION OR FOG.

+ - STATION NOT QUALITY CONTROLLED BY THE NATIONAL WEATHER SERVICE.
    USE DATA WITH CAUTION...ESPECIALLY DEWPOINT AND RELATIVE
    HUMIDITY OBSERVATIONS.

INZ001>003-010>013-019-020-281600-
NORTHWEST INDIANA

CITY           SKY/WX    TMP DP  RH WIND       PRES   REMARKS
GARY /AIRPORT/ PTSUNNY   77  72  83 S17G29    29.94R
KNOX *+        CLOUDY    75  57  53 S14       29.97S
LA PORTE +     CLOUDY    78  68  72 S13G22    29.97S
MICHIGAN CITY+ CLOUDY    77  66  69 S18G28    29.96R
MONTICELLO +   CLOUDY    75  60  59 S12G17    29.98S
RENSSELAER +   CLOUDY    73  66  78 S13       29.97R
VALPARAISO     LGT RAIN  75  65  70 S14G23    29.96R

$$

LMZ046-743>745-281600-
SOUTHERN LAKE MICHIGAN

STATION/POSITION TIME  TEMP    WIND        PRES    WAVE
                       AIR SEA DIR/SP/G            HT
                 (UTC) (F)     (DEG/KT/KT) (MB)    (FT)
BURNS HARBOR     1412   73     200/ 15/ 26 1013.5R
MICHIGAN CITY    1400   73     180/ 17/ 22   N/A
5NW MICH CITY    1500   69 58  200/ 14/ 19   N/A     2

$$

INZ004-005-014>016-021>024-281600-
NORTH CENTRAL INDIANA

CITY           SKY/WX    TMP DP  RH WIND       PRES   REMARKS
ELKHART        CLOUDY    75  68  78 S14       30.00R
GOSHEN         PTSUNNY   78  64  61 SW21G26   30.00R
LOGANSPORT +   CLOUDY    75  63  64 S15       30.01F
PERU/GRISSOM   CLOUDY    78  64  61 SW16G25   30.01R
ROCHESTER +    CLOUDY    79  64  61 S7G18     30.01S
SOUTH BEND     CLOUDY    75  67  76 S14       29.98R
WARSAW +       PTSUNNY   77  64  65 S8        30.01S

$$

INZ006>009-017-018-025>027-281600-
NORTHEAST INDIANA

CITY           SKY/WX    TMP DP  RH WIND       PRES   REMARKS
ANGOLA *+        N/A     75  70  83 S7        30.03S
AUBURN +       CLOUDY    75  63  64 S5        30.05R
FORT WAYNE     CLOUDY    77  64  64 SW16G22   30.04S
HUNTINGTON +   CLOUDY    76  63  64 SW12G17   30.04R

$$

INZ028-029-035-036-043>045-051>053-281600-
WEST CENTRAL INDIANA

CITY           SKY/WX    TMP DP  RH WIND       PRES   REMARKS
CRAWFORDSVL +  CLOUDY    76  65  68 S17G23    30.01S
GREENCASTLE +  CLOUDY    77  68  73 S7G18     30.03S
LAFAYETTE      CLOUDY    75  64  68 S10G23    29.98S
TERRE HAUTE    CLOUDY    76  65  68 S14G23    30.01R

$$

INZ030>032-037>040-046>048-054>057-064-065-281600-
CENTRAL INDIANA

CITY           SKY/WX    TMP DP  RH WIND       PRES   REMARKS
ANDERSON       SUNNY     75  64  69 S10       30.08R
CP ATTERBURY + CLOUDY    75  68  78 S6        30.07S
COLUMBUS       MOSUNNY   72  70  94 S9        30.07S
FISHERS *+     CLOUDY    77  68  73 S8        30.05
FRANKFORT +      N/A     77  54  44 S10G16    30.03S
GREENWOOD *+   CLOUDY    77  66  69 S10       30.06R
INDIANAPOLIS   CLOUDY    76  66  71 S12       30.03R
-EAGLE CREEK   CLOUDY    78  65  63 S8G18     30.03S
KOKOMO *+      CLOUDY    79  63  57 SW21G28   30.02S
MARION +       CLOUDY    76  64  65 SW16      30.05S
SHELBYVILLE    CLOUDY    77  65  66 S16       30.06R
ZIONSVILLE +   CLOUDY    77  65  65 S15G22    30.05S

$$

INZ033-034-041-042-049-050-058-059-281600-
EAST CENTRAL INDIANA

CITY           SKY/WX    TMP DP  RH WIND       PRES   REMARKS
MUNCIE         CLOUDY    79  64  60 S12G18    30.06S

$$

INZ060-061-067>069-081>083-085>088-281600-
SOUTHWEST INDIANA

CITY           SKY/WX    TMP DP  RH WIND       PRES   REMARKS
EVANSVILLE     CLOUDY    81  65  58 S15G22    30.03F
HUNTINGBURG *+ CLOUDY    79  66  65 S14G22    30.05F
WASHINGTON +   CLOUDY    79  68  69 S10       30.03S

$$

INZ062-063-066-070>080-084-089>092-281600-
SOUTH CENTRAL AND SOUTHEAST INDIANA

CITY           SKY/WX    TMP DP  RH WIND       PRES   REMARKS
BEDFORD +      PTSUNNY   79  75  89 S9G18     30.06S
BLOOMINGTON    CLOUDY    80  65  59 S13       30.05R
MADISON *+     CLOUDY    73  64  73 S8        30.12S
NORTH VERNON + PTSUNNY   75  72  88 S7        30.10R
SEYMOUR +      CLOUDY    75  66  73 S10       30.08R

$$





USA.gov is the U.S. government's official web portal to all federal, state and local government web resources and services.